Milwaukee, WI

1:17 AM CST on November 20, 2019 (GMT -0600)
Gen Mitchell International

Weather History for KMKE - September, 2019

Change the Weather History Date:

Monday, September 16, 2019

  Actual Average Record
Temperature  
Mean Temperature 66 °F 63 °F  
Max Temperature 73 °F 71 °F 93 °F (1891)
Min Temperature 60 °F 55 °F 36 °F (1916)
Degree Days  
Heating Degree Days 0 4  
Month to date heating degree days 8 37  
Since 1 July heating degree days 10 63  
Cooling Degree Days 2 2  
Month to date cooling degree days 59 52  
Year to date cooling degree days 665 617  
Growing Degree Days 16 (Base 50)    
Moisture  
Dew Point 62 °F    
Average Humidity 88    
Maximum Humidity 97    
Minimum Humidity 73    
Precipitation  
Precipitation 0.00 in 0.11 in 1.16 in (1929)
Month to date precipitation 5.06 1.68  
Year to date precipitation 33.47 25.86  
Snow  
Snow 0.00 in 0.00 in 0.00 in (2018)
Month to date snowfall 0.0 0.0  
Since 1 July snowfall 0.0 0.0  
Since 1 September snowfall 0.0 0.0  
Snow Depth 0.00 in    
Sea Level Pressure  
Sea Level Pressure 30.11 in    
Wind  
Wind Speed 4 mph ()    
Max Wind Speed 12 mph    
Max Gust Speed 15 mph    
Visibility 3.6 miles    
Events Fog    
T = Trace of Precipitation, MM = Missing Value Source: Averaged Metar Reports

Daily Weather History Graph

Daily Weather History Graph

Search for Another Location

Airport or City:

Astronomy

Sep. 16, 2019 Rise Set
Actual Time 6:32 AM CDT 7:00 PM CDT
Civil Twilight 6:03 AM CDT 7:28 PM CDT
Nautical Twilight 5:30 AM CDT 8:01 PM CDT
Astronomical Twilight 4:55 AM CDT 8:36 PM CDT
Moon 8:31 PM CDT (9/16) 8:41 AM CDT (9/16)
Length of Visible Light 13h 24m
Length of Day
12h 27m
Waning Gibbous, 94% of the Moon is Illuminated
Sep 16
Waning Gibbous
Sep 21
Last Quarter
Sep 28
New
Oct 5
First Quarter
Oct 13
Full

Hourly Weather History & Observations

Time (CDT) Temp. Dew Point Humidity Pressure Visibility Wind Dir Wind Speed Gust Speed Precip Events Conditions
12:52 AM 69.1 °F 66.0 °F 90% 30.03 in 7.0 mi Calm Calm - N/A   Mostly Cloudy
1:52 AM 70.0 °F 66.0 °F 87% 30.04 in 8.0 mi WNW 4.6 mph - N/A   Overcast
2:12 AM 69.1 °F 66.0 °F 90% 30.05 in 8.0 mi WNW 3.5 mph - N/A   Scattered Clouds
2:49 AM 69.8 °F 66.2 °F 88% 30.06 in 5.0 mi NW 6.9 mph - N/A   Mostly Cloudy
2:52 AM 69.1 °F 66.9 °F 93% 30.05 in 5.0 mi NW 6.9 mph - N/A   Mostly Cloudy
3:20 AM 68.0 °F 66.0 °F 93% 30.06 in 6.0 mi NW 3.5 mph - N/A   Scattered Clouds
3:52 AM 68.0 °F 64.9 °F 90% 30.06 in 5.0 mi NNW 5.8 mph - N/A   Partly Cloudy
3:59 AM 68.0 °F 64.9 °F 90% 30.06 in 3.0 mi NW 5.8 mph - N/A   Scattered Clouds
4:18 AM 66.9 °F 64.9 °F 93% 30.07 in 1.0 mi NNW 4.6 mph - N/A   Mostly Cloudy
4:52 AM 66.9 °F 64.9 °F 93% 30.07 in 0.5 mi NNW 5.8 mph - N/A   Overcast
5:01 AM 66.9 °F 64.9 °F 93% 30.08 in 0.5 mi NW 5.8 mph - N/A   Overcast
5:18 AM 66.9 °F 64.9 °F 93% 30.08 in 1.0 mi NNW 5.8 mph - N/A   Overcast
5:48 AM 66.2 °F 64.4 °F 94% 30.09 in 2.0 mi NE 6.9 mph - N/A   Overcast
5:52 AM 66.9 °F 64.0 °F 90% 30.09 in 0.8 mi NNE 6.9 mph - N/A   Overcast
6:16 AM 64.0 °F 62.1 °F 93% 30.10 in 0.5 mi NNE 8.1 mph - N/A Fog Fog
6:37 AM 64.0 °F 62.1 °F 93% 30.11 in 0.5 mi NNE 5.8 mph - N/A Fog Fog
6:52 AM 64.0 °F 62.1 °F 93% 30.11 in 0.5 mi North 5.8 mph - N/A Fog Fog
7:02 AM 64.0 °F 62.1 °F 93% 30.11 in 0.5 mi NNE 6.9 mph - N/A Fog Fog
7:52 AM 64.0 °F 62.1 °F 93% 30.13 in 0.5 mi North 6.9 mph - N/A Fog Fog
8:52 AM 64.0 °F 62.1 °F 93% 30.14 in 0.5 mi NNE 3.5 mph - N/A Fog Fog
9:12 AM 64.9 °F 62.1 °F 90% 30.15 in 1.0 mi NNE 3.5 mph - N/A   Overcast
9:50 AM 66.2 °F 62.6 °F 88% 30.16 in 2.0 mi North 4.6 mph - N/A   Overcast
9:52 AM 66.0 °F 63.0 °F 90% 30.15 in 2.0 mi North 4.6 mph - N/A   Overcast
10:52 AM 68.0 °F 63.0 °F 84% 30.16 in 6.0 mi NE 5.8 mph - N/A   Haze
11:52 AM 68.0 °F 62.1 °F 81% 30.17 in 8.0 mi NNE 6.9 mph - N/A   Overcast
12:52 PM 69.1 °F 61.0 °F 75% 30.15 in 9.0 mi NE 6.9 mph - N/A   Mostly Cloudy
1:14 PM 70.0 °F 62.1 °F 76% 30.15 in 10.0 mi NE 5.8 mph - N/A   Partly Cloudy
1:52 PM 72.0 °F 63.0 °F 73% 30.13 in 10.0 mi Calm Calm - N/A   Partly Cloudy
2:52 PM 72.0 °F 63.0 °F 73% 30.12 in 10.0 mi East 5.8 mph - N/A   Partly Cloudy
3:52 PM 70.0 °F 62.1 °F 76% 30.12 in 10.0 mi ENE 8.1 mph - N/A   Partly Cloudy
4:27 PM 69.1 °F 61.0 °F 75% 30.13 in 10.0 mi ENE 5.8 mph - N/A   Scattered Clouds
4:52 PM 68.0 °F 61.0 °F 78% 30.12 in 10.0 mi ENE 4.6 mph - N/A   Scattered Clouds
5:52 PM 64.0 °F 60.1 °F 87% 30.13 in 6.0 mi NE 4.6 mph - N/A   Mostly Cloudy
6:06 PM 63.0 °F 60.1 °F 90% 30.14 in 1.5 mi NE 5.8 mph - N/A   Overcast
6:27 PM 63.0 °F 60.1 °F 90% 30.13 in 0.2 mi ENE 3.5 mph - N/A Fog Fog
6:35 PM 63.0 °F 60.1 °F 90% 30.13 in 0.5 mi NNE 3.5 mph - N/A Fog Fog
6:52 PM 63.0 °F 60.1 °F 90% 30.13 in 0.5 mi ENE 3.5 mph - N/A Fog Fog
7:52 PM 61.0 °F 59.0 °F 93% 30.14 in 0.5 mi Calm Calm - N/A Fog Fog
8:46 PM 60.8 °F 59.0 °F 94% 30.13 in 0.2 mi Calm Calm - N/A Fog Fog
8:52 PM 61.0 °F 59.0 °F 93% 30.13 in 0.2 mi Calm Calm - N/A Fog Fog
9:52 PM 60.1 °F 57.9 °F 93% 30.14 in 0.5 mi East 4.6 mph - N/A Fog Fog
10:52 PM 60.1 °F 57.9 °F 93% 30.14 in 0.5 mi Calm Calm - N/A Fog Fog
11:52 PM 61.0 °F 59.0 °F 93% 30.14 in 0.5 mi East 4.6 mph - N/A Fog Fog